When you browse on this site, cookies collect data to enhance your experience and personalize the content and advertising you see.
Visit our Privacy Policy to learn more. By continuing to use the site, you agree to this use of cookies and data.
  • en Suisse
  • Liste des pays
  • À 7 jours
  • Température de l'eau
  • Carte météo
  • Widgets météo
  • user-avatar
    Se connecter

    Météo par heure à Konstantinovka

    Ce jour, 28 Février, Vendredi

    Heure Température Précipitation Vent Pression Humidité
    00:00 +8°C° 0 mm 6 m/s 740 mmHg 87%
    01:00 +8°C° 0.2 mm 6 m/s 740 mmHg 88%
    02:00 +8°C° 0.2 mm 7 m/s 740 mmHg 88%
    03:00 +8°C° 0 mm 6 m/s 739 mmHg 90%
    04:00 +7°C° 0.4 mm 6 m/s 738 mmHg 89%
    05:00 +7°C° 0.4 mm 5 m/s 738 mmHg 88%
    06:00 +7°C° 0.4 mm 4 m/s 737 mmHg 86%
    07:00 +7°C° 0.5 mm 5 m/s 737 mmHg 87%
    08:00 +7°C° 0.5 mm 6 m/s 737 mmHg 88%
    09:00 +5°C° 0 mm 7 m/s 737 mmHg 88%
    10:00 +6°C° 0.6 mm 7 m/s 738 mmHg 84%
    11:00 +6°C° 0.6 mm 8 m/s 738 mmHg 79%
    12:00 +6°C° 0.6 mm 8 m/s 738 mmHg 75%
    13:00 +5°C° 0.6 mm 8 m/s 739 mmHg 81%
    14:00 +2°C° 0.6 mm 9 m/s 740 mmHg 87%
    15:00 0°C° 0.6 mm 9 m/s 741 mmHg 93%
    16:00 +1°C° 0.4 mm 8 m/s 742 mmHg 86%
    17:00 +2°C° 0.4 mm 7 m/s 744 mmHg 79%
    18:00 +2°C° 0.4 mm 6 m/s 745 mmHg 73%
    19:00 +1°C° 0 mm 5 m/s 746 mmHg 75%
    20:00 +1°C° 0 mm 4 m/s 747 mmHg 77%
    21:00 +1°C° 0 mm 3 m/s 748 mmHg 79%
    22:00 +1°C° 0 mm 3 m/s 749 mmHg 79%
    23:00 +1°C° 0 mm 3 m/s 749 mmHg 79%

    Demain, 29 Février, Samedi

    Heure Température Précipitation Vent Pression Humidité
    00:00 +1°C° 0 mm 2 m/s 750 mmHg 79%
    01:00 +1°C° 0 mm 2 m/s 750 mmHg 80%
    02:00 +1°C° 0 mm 2 m/s 750 mmHg 80%
    03:00 +2°C° 0 mm 1 m/s 750 mmHg 80%
    04:00 +2°C° 0 mm 1 m/s 750 mmHg 79%
    05:00 +2°C° 0 mm 1 m/s 750 mmHg 79%
    06:00 +1°C° 0 mm 0 m/s 750 mmHg 78%
    07:00 +1°C° 0 mm 0 m/s 751 mmHg 75%
    08:00 +2°C° 0 mm 0 m/s 751 mmHg 73%
    09:00 +3°C° 0 mm 1 m/s 751 mmHg 70%
    10:00 +4°C° 0 mm 1 m/s 751 mmHg 65%
    11:00 +5°C° 0 mm 1 m/s 751 mmHg 61%
    12:00 +6°C° 0 mm 1 m/s 751 mmHg 56%
    13:00 +6°C° 0 mm 1 m/s 751 mmHg 53%
    14:00 +6°C° 0 mm 1 m/s 751 mmHg 50%
    15:00 +7°C° 0 mm 1 m/s 751 mmHg 47%
    16:00 +6°C° 0 mm 1 m/s 751 mmHg 51%
    17:00 +6°C° 0 mm 1 m/s 752 mmHg 55%
    18:00 +5°C° 0 mm 1 m/s 752 mmHg 59%
    19:00 +5°C° 0 mm 1 m/s 752 mmHg 61%
    20:00 +3°C° 0 mm 0 m/s 753 mmHg 63%
    21:00 +3°C° 0 mm 0 m/s 753 mmHg 65%
    22:00 +2°C° 0 mm 0 m/s 753 mmHg 66%
    23:00 +2°C° 0 mm 0 m/s 754 mmHg 67%

    Après-demain, 1 Mars, Dimanche

    Heure Température Précipitation Vent Pression Humidité
    00:00 +2°C° 0 mm 0 m/s 754 mmHg 67%
    01:00 +2°C° 0 mm 0 m/s 754 mmHg 68%
    02:00 +2°C° 0 mm 0 m/s 754 mmHg 68%
    03:00 +2°C° 0 mm 1 m/s 755 mmHg 68%
    04:00 +1°C° 0 mm 0 m/s 755 mmHg 69%
    05:00 +1°C° 0 mm 0 m/s 755 mmHg 70%
    06:00 +1°C° 0 mm 0 m/s 756 mmHg 70%
    07:00 +2°C° 0 mm 0 m/s 756 mmHg 68%
    08:00 +4°C° 0 mm 1 m/s 757 mmHg 65%
    09:00 +4°C° 0 mm 1 m/s 757 mmHg 63%
    10:00 +5°C° 0 mm 1 m/s 757 mmHg 59%
    11:00 +6°C° 0 mm 2 m/s 758 mmHg 55%
    12:00 +7°C° 0 mm 2 m/s 758 mmHg 51%
    13:00 +7°C° 0 mm 2 m/s 758 mmHg 48%
    14:00 +7°C° 0 mm 2 m/s 758 mmHg 46%
    15:00 +8°C° 0 mm 2 m/s 757 mmHg 43%
    16:00 +7°C° 0 mm 2 m/s 757 mmHg 46%
    17:00 +6°C° 0 mm 2 m/s 757 mmHg 49%
    18:00 +6°C° 0 mm 2 m/s 757 mmHg 52%
    19:00 +5°C° 0 mm 2 m/s 758 mmHg 55%
    20:00 +3°C° 0 mm 3 m/s 758 mmHg 58%
    21:00 +2°C° 0 mm 3 m/s 758 mmHg 62%
    22:00 +2°C° 0 mm 3 m/s 758 mmHg 63%
    23:00 +1°C° 0 mm 3 m/s 758 mmHg 65%

    2 Mars, Lundi

    Heure Température Précipitation Vent Pression Humidité
    00:00 +1°C° 0 mm 3 m/s 758 mmHg 67%
    01:00 +1°C° 0 mm 3 m/s 758 mmHg 67%
    02:00 +1°C° 0 mm 3 m/s 758 mmHg 68%
    03:00 0°C° 0 mm 3 m/s 758 mmHg 69%
    04:00 0°C° 0 mm 3 m/s 758 mmHg 70%
    05:00 -1°C° 0 mm 4 m/s 758 mmHg 70%
    06:00 -1°C° 0 mm 4 m/s 757 mmHg 71%
    07:00 0°C° 0 mm 4 m/s 757 mmHg 68%
    08:00 +1°C° 0 mm 5 m/s 757 mmHg 66%
    09:00 +2°C° 0 mm 5 m/s 757 mmHg 63%
    10:00 +3°C° 0 mm 6 m/s 757 mmHg 60%
    11:00 +4°C° 0 mm 6 m/s 757 mmHg 57%
    12:00 +5°C° 0 mm 7 m/s 756 mmHg 53%
    13:00 +6°C° 0 mm 7 m/s 756 mmHg 53%
    14:00 +6°C° 0 mm 7 m/s 755 mmHg 53%
    15:00 +8°C° 0 mm 6 m/s 755 mmHg 52%
    16:00 +7°C° 0 mm 6 m/s 754 mmHg 56%
    17:00 +6°C° 0 mm 5 m/s 754 mmHg 60%
    18:00 +6°C° 0 mm 4 m/s 754 mmHg 64%
    19:00 +5°C° 0 mm 4 m/s 754 mmHg 67%
    20:00 +5°C° 0 mm 4 m/s 753 mmHg 69%
    21:00 +4°C° 0 mm 4 m/s 753 mmHg 72%
    22:00 +4°C° 0 mm 4 m/s 753 mmHg 73%
    23:00 +4°C° 0 mm 4 m/s 753 mmHg 75%

    3 Mars, Mardi

    Heure Température Précipitation Vent Pression Humidité
    00:00 +4°C° 0 mm 4 m/s 753 mmHg 76%
    01:00 +3°C° 0 mm 5 m/s 753 mmHg 79%
    02:00 +3°C° 0 mm 5 m/s 752 mmHg 81%
    03:00 +3°C° 0 mm 5 m/s 752 mmHg 83%
    04:00 +3°C° 0 mm 5 m/s 752 mmHg 83%
    05:00 +3°C° 0 mm 6 m/s 752 mmHg 82%
    06:00 +3°C° 0 mm 6 m/s 752 mmHg 81%
    07:00 +3°C° 0 mm 7 m/s 752 mmHg 80%
    08:00 +3°C° 0 mm 7 m/s 752 mmHg 80%
    09:00 +4°C° 0 mm 7 m/s 752 mmHg 79%
    10:00 +5°C° 0 mm 8 m/s 752 mmHg 74%
    11:00 +7°C° 0 mm 8 m/s 751 mmHg 70%
    12:00 +9°C° 0 mm 8 m/s 751 mmHg 65%
    13:00 +10°C° 0 mm 8 m/s 751 mmHg 63%
    14:00 +11°C° 0 mm 8 m/s 752 mmHg 60%
    15:00 +12°C° 0 mm 7 m/s 752 mmHg 58%
    16:00 +11°C° 0 mm 6 m/s 752 mmHg 62%
    17:00 +12°C° 0 mm 5 m/s 752 mmHg 65%
    18:00 +11°C° 0 mm 4 m/s 752 mmHg 69%
    19:00 +10°C° 0 mm 4 m/s 752 mmHg 73%
    20:00 +8°C° 0 mm 4 m/s 752 mmHg 78%
    21:00 +9°C° 0 mm 3 m/s 753 mmHg 82%
    22:00 +8°C° 0 mm 3 m/s 753 mmHg 83%
    23:00 +8°C° 0 mm 3 m/s 753 mmHg 85%

    4 Mars, Mercredi

    Heure Température Précipitation Vent Pression Humidité
    00:00 +8°C° 0 mm 3 m/s 753 mmHg 86%
    01:00 +7°C° 0 mm 3 m/s 753 mmHg 87%
    02:00 +7°C° 0 mm 3 m/s 753 mmHg 88%
    03:00 +5°C° 0 mm 3 m/s 753 mmHg 88%
    04:00 +5°C° 0 mm 4 m/s 753 mmHg 87%
    05:00 +5°C° 0 mm 4 m/s 752 mmHg 86%
    06:00 +5°C° 0 mm 4 m/s 752 mmHg 85%
    07:00 +6°C° 0 mm 4 m/s 752 mmHg 81%
    08:00 +6°C° 0 mm 5 m/s 752 mmHg 77%
    09:00 +7°C° 0 mm 5 m/s 752 mmHg 74%
    10:00 +8°C° 0 mm 6 m/s 752 mmHg 66%
    11:00 +10°C° 0 mm 6 m/s 752 mmHg 59%
    12:00 +11°C° 0 mm 6 m/s 751 mmHg 51%
    13:00 +13°C° 0 mm 6 m/s 751 mmHg 49%
    14:00 +14°C° 0 mm 6 m/s 751 mmHg 46%
    15:00 +15°C° 0 mm 6 m/s 751 mmHg 44%
    16:00 +14°C° 0 mm 5 m/s 750 mmHg 48%
    17:00 +13°C° 0 mm 4 m/s 750 mmHg 53%
    18:00 +12°C° 0 mm 4 m/s 750 mmHg 57%
    19:00 +11°C° 0 mm 4 m/s 750 mmHg 59%
    20:00 +11°C° 0 mm 4 m/s 750 mmHg 61%
    21:00 +10°C° 0 mm 4 m/s 750 mmHg 64%
    22:00 +10°C° 0 mm 4 m/s 749 mmHg 65%
    23:00 +10°C° 0 mm 4 m/s 749 mmHg 67%
    Voir plus